To NAV CANADA Home Page Login to a new session Search on AWWS site Feedback and Comments Disclaimer Vers la page française équivalente Tips FAQ What's new on the site To the Forecasts and Observations / NOTAM section To "File a Flight Plan" website Publications and other links Update of the User's profile FIC Telephone Numbers My Weather Data Folder Route Weather Data Regional Weather Data Local Weather Data To the Forecasts and Observations / NOTAM section
Request Generated 09/04/2015 at 16:28:16 UTC . Weather information available at that time is displayed.

METAR/TAF

FLIN FLON/MB    

METAR CYFO 041600Z 35004KT 300V080 15SM FEW025 SCT100 BKN280 15/08
A3003 RMK CU1AC2CI3 SLP175 DENSITY ALT 1000FT=
METAR CYFO 041500Z 34009KT 15SM FEW090 BKN280 13/08 A3000 RMK AC1CI5
SLP165=
METAR CYFO 041400Z 34006KT 15SM FEW040 FEW090 BKN250 12/08 A2998 RMK
SC1AC1CI5 SLP158=

CYFO - No TAF is issued for this station

Your time UTC time
Weather data provided by Environment Canada and NAV CANADA